When you browse on this site, cookies collect data to enhance your experience and personalize the content and advertising you see.
Visit our Privacy Policy to learn more. By continuing to use the site, you agree to this use of cookies and data.
  • In Hungary
  • List of Countries
  • For 7 days
  • Water Temperature
  • Weather Map
  • News
  • Weather Widgets
  • user-avatar
    Login

    Hourly Weather Rzadkowo

    Today, 26 August, Monday

    Time Temperature Precipitation Wind Pressure Humidity
    00:00 +17°C° 0 mm 2 mps 756 mmHg 80%
    01:00 +16°C° 0 mm 2 mps 756 mmHg 81%
    02:00 +16°C° 0 mm 2 mps 756 mmHg 82%
    03:00 +16°C° 0 mm 2 mps 756 mmHg 83%
    04:00 +15°C° 0 mm 2 mps 756 mmHg 84%
    05:00 +16°C° 0 mm 3 mps 756 mmHg 81%
    06:00 +18°C° 0 mm 3 mps 756 mmHg 78%
    07:00 +19°C° 0 mm 3 mps 756 mmHg 75%
    08:00 +21°C° 0 mm 3 mps 756 mmHg 69%
    09:00 +24°C° 0 mm 3 mps 756 mmHg 62%
    10:00 +25°C° 0 mm 3 mps 756 mmHg 55%
    11:00 +26°C° 0 mm 4 mps 756 mmHg 52%
    12:00 +27°C° 0 mm 4 mps 756 mmHg 49%
    13:00 +28°C° 0 mm 4 mps 756 mmHg 46%
    14:00 +28°C° 0 mm 3 mps 755 mmHg 48%
    15:00 +27°C° 0 mm 3 mps 755 mmHg 50%
    16:00 +27°C° 0 mm 3 mps 755 mmHg 52%
    17:00 +25°C° 0 mm 3 mps 755 mmHg 58%
    18:00 +23°C° 0 mm 2 mps 754 mmHg 65%
    19:00 +20°C° 0 mm 2 mps 754 mmHg 71%
    20:00 +20°C° 0 mm 2 mps 755 mmHg 74%
    21:00 +19°C° 0 mm 3 mps 755 mmHg 78%
    22:00 +18°C° 0 mm 3 mps 755 mmHg 81%
    23:00 +18°C° 0 mm 3 mps 755 mmHg 84%

    Tomorrow, 27 August, Tuesday

    Time Temperature Precipitation Wind Pressure Humidity
    00:00 +18°C° 0 mm 3 mps 755 mmHg 87%
    01:00 +17°C° 0 mm 3 mps 755 mmHg 90%
    02:00 +17°C° 0 mm 3 mps 755 mmHg 91%
    03:00 +17°C° 0 mm 3 mps 755 mmHg 92%
    04:00 +17°C° 0 mm 3 mps 755 mmHg 93%
    05:00 +18°C° 0 mm 3 mps 755 mmHg 87%
    06:00 +19°C° 0 mm 3 mps 755 mmHg 82%
    07:00 +20°C° 0 mm 4 mps 755 mmHg 77%
    08:00 +22°C° 0 mm 4 mps 755 mmHg 71%
    09:00 +25°C° 0 mm 4 mps 755 mmHg 65%
    10:00 +27°C° 0 mm 4 mps 755 mmHg 59%
    11:00 +28°C° 0 mm 4 mps 755 mmHg 56%
    12:00 +28°C° 0 mm 4 mps 755 mmHg 54%
    13:00 +29°C° 0 mm 4 mps 755 mmHg 51%
    14:00 +29°C° 0 mm 4 mps 755 mmHg 52%
    15:00 +29°C° 0 mm 4 mps 754 mmHg 54%
    16:00 +29°C° 0 mm 3 mps 754 mmHg 55%
    17:00 +27°C° 0 mm 3 mps 754 mmHg 60%
    18:00 +25°C° 0 mm 3 mps 754 mmHg 66%
    19:00 +22°C° 0 mm 3 mps 754 mmHg 71%
    20:00 +21°C° 0 mm 3 mps 754 mmHg 73%
    21:00 +20°C° 0 mm 3 mps 754 mmHg 75%
    22:00 +19°C° 0 mm 3 mps 754 mmHg 77%
    23:00 +19°C° 0 mm 3 mps 754 mmHg 79%

    Day after tomorrow, 28 August, Wednesday

    Time Temperature Precipitation Wind Pressure Humidity
    00:00 +18°C° 0 mm 3 mps 754 mmHg 81%
    01:00 +18°C° 0 mm 3 mps 754 mmHg 84%
    02:00 +18°C° 0 mm 3 mps 754 mmHg 86%
    03:00 +17°C° 0 mm 3 mps 754 mmHg 87%
    04:00 +17°C° 0 mm 3 mps 754 mmHg 89%
    05:00 +18°C° 0 mm 4 mps 754 mmHg 85%
    06:00 +19°C° 0 mm 4 mps 754 mmHg 81%
    07:00 +20°C° 0 mm 4 mps 754 mmHg 77%
    08:00 +22°C° 0 mm 5 mps 754 mmHg 71%
    09:00 +23°C° 0 mm 5 mps 754 mmHg 66%
    10:00 +26°C° 0 mm 5 mps 753 mmHg 60%
    11:00 +27°C° 0 mm 5 mps 753 mmHg 57%
    12:00 +28°C° 0 mm 5 mps 753 mmHg 54%
    13:00 +28°C° 0 mm 5 mps 753 mmHg 51%
    14:00 +28°C° 0 mm 5 mps 753 mmHg 52%
    15:00 +28°C° 0 mm 5 mps 752 mmHg 54%
    16:00 +28°C° 0 mm 4 mps 752 mmHg 55%
    17:00 +26°C° 0 mm 4 mps 752 mmHg 61%
    18:00 +23°C° 0 mm 4 mps 752 mmHg 67%
    19:00 +22°C° 0 mm 4 mps 752 mmHg 72%
    20:00 +21°C° 0 mm 4 mps 752 mmHg 74%
    21:00 +21°C° 0 mm 5 mps 752 mmHg 76%
    22:00 +20°C° 0 mm 5 mps 752 mmHg 78%
    23:00 +19°C° 0 mm 5 mps 752 mmHg 79%

    29 August, Thursday

    Time Temperature Precipitation Wind Pressure Humidity
    00:00 +19°C° 0 mm 4 mps 752 mmHg 81%
    01:00 +18°C° 0 mm 4 mps 752 mmHg 82%
    02:00 +18°C° 0 mm 4 mps 752 mmHg 84%
    03:00 +17°C° 0 mm 4 mps 752 mmHg 85%
    04:00 +17°C° 0 mm 4 mps 751 mmHg 86%
    05:00 +17°C° 0 mm 5 mps 751 mmHg 83%
    06:00 +19°C° 0 mm 5 mps 751 mmHg 80%
    07:00 +20°C° 0 mm 5 mps 751 mmHg 76%
    08:00 +21°C° 0 mm 6 mps 751 mmHg 70%
    09:00 +23°C° 0 mm 6 mps 751 mmHg 64%
    10:00 +26°C° 0 mm 6 mps 751 mmHg 58%
    11:00 +27°C° 0 mm 6 mps 751 mmHg 56%
    12:00 +28°C° 0 mm 6 mps 751 mmHg 53%
    13:00 +28°C° 0 mm 6 mps 751 mmHg 51%
    14:00 +28°C° 0 mm 6 mps 750 mmHg 53%
    15:00 +28°C° 0 mm 5 mps 750 mmHg 54%
    16:00 +27°C° 0 mm 5 mps 750 mmHg 56%
    17:00 +26°C° 0 mm 5 mps 750 mmHg 61%
    18:00 +23°C° 0 mm 5 mps 750 mmHg 66%
    19:00 +22°C° 0 mm 5 mps 750 mmHg 70%
    20:00 +21°C° 0 mm 5 mps 750 mmHg 70%
    21:00 +21°C° 0 mm 5 mps 750 mmHg 70%
    22:00 +20°C° 0 mm 5 mps 750 mmHg 70%
    23:00 +19°C° 0 mm 5 mps 750 mmHg 72%

    30 August, Friday

    Time Temperature Precipitation Wind Pressure Humidity
    00:00 +19°C° 0 mm 4 mps 750 mmHg 74%
    01:00 +18°C° 0 mm 4 mps 750 mmHg 76%
    02:00 +18°C° 0 mm 4 mps 750 mmHg 77%
    03:00 +17°C° 0 mm 4 mps 749 mmHg 77%
    04:00 +17°C° 0 mm 4 mps 749 mmHg 78%
    05:00 +17°C° 0 mm 4 mps 750 mmHg 77%
    06:00 +18°C° 0 mm 4 mps 750 mmHg 75%
    07:00 +18°C° 0 mm 4 mps 750 mmHg 74%
    08:00 +19°C° 0.3 mm 4 mps 750 mmHg 72%
    09:00 +20°C° 0.3 mm 4 mps 750 mmHg 70%
    10:00 +22°C° 0.3 mm 3 mps 751 mmHg 69%
    11:00 +24°C° 0 mm 3 mps 751 mmHg 65%
    12:00 +25°C° 0 mm 2 mps 751 mmHg 61%
    13:00 +26°C° 0 mm 2 mps 751 mmHg 57%
    14:00 +26°C° 0 mm 1 mps 751 mmHg 57%
    15:00 +27°C° 0 mm 1 mps 751 mmHg 57%
    16:00 +27°C° 0 mm 1 mps 751 mmHg 57%
    17:00 +25°C° 0 mm 1 mps 751 mmHg 64%
    18:00 +23°C° 0 mm 2 mps 751 mmHg 71%
    19:00 +21°C° 0 mm 3 mps 751 mmHg 78%
    20:00 +20°C° 0 mm 3 mps 751 mmHg 82%
    21:00 +20°C° 0 mm 3 mps 751 mmHg 86%
    22:00 +19°C° 0 mm 3 mps 752 mmHg 90%
    23:00 +18°C° 0.1 mm 3 mps 752 mmHg 91%

    31 August, Saturday

    Time Temperature Precipitation Wind Pressure Humidity
    00:00 +18°C° 0.1 mm 3 mps 752 mmHg 92%
    01:00 +17°C° 0.1 mm 2 mps 752 mmHg 93%
    02:00 +17°C° 0 mm 3 mps 752 mmHg 94%
    03:00 +17°C° 0 mm 3 mps 751 mmHg 94%
    04:00 +17°C° 0 mm 3 mps 751 mmHg 94%
    05:00 +17°C° 0 mm 3 mps 751 mmHg 91%
    06:00 +18°C° 0 mm 3 mps 751 mmHg 89%
    07:00 +19°C° 0 mm 3 mps 751 mmHg 86%
    08:00 +20°C° 0 mm 2 mps 752 mmHg 80%
    09:00 +21°C° 0 mm 2 mps 752 mmHg 73%
    10:00 +24°C° 0 mm 2 mps 752 mmHg 67%
    11:00 +25°C° 0 mm 1 mps 752 mmHg 64%
    12:00 +26°C° 0 mm 1 mps 751 mmHg 61%
    13:00 +26°C° 0 mm 1 mps 751 mmHg 58%
    14:00 +26°C° 0 mm 1 mps 751 mmHg 58%
    15:00 +26°C° 0 mm 1 mps 750 mmHg 58%
    16:00 +26°C° 0 mm 1 mps 750 mmHg 59%
    17:00 +25°C° 0 mm 1 mps 750 mmHg 66%
    18:00 +23°C° 0 mm 1 mps 750 mmHg 72%
    19:00 +21°C° 0 mm 1 mps 750 mmHg 79%
    20:00 +21°C° 0 mm 1 mps 750 mmHg 81%
    21:00 +20°C° 0 mm 1 mps 750 mmHg 84%
    22:00 +19°C° 0 mm 1 mps 750 mmHg 86%
    23:00 +19°C° 0 mm 1 mps 750 mmHg 87%
    Show more